Total_Precipitation_Accumulation
0.01 0.03 0.04 0.06 0.02 0.01 0.00 0.00 0.00 0.00 0.00 0.00 0.00 0.01 0.01 0.01 0.01 0.03 0.01 0.00 0.00 0.00 0.02 0.05 0.09 0.14 0.13 0.10 0.07 0.03 0.02 0.03 0.04 0.06 0.08 0.09 0.08 0.07 0.08 0.09 0.13 0.15 0.18 0.21 0.26 0.26 0.24 0.20 0.17
0.03 0.06 0.11 0.09 0.03 0.01 0.00 0.00 0.00 0.00 0.00 0.00 0.00 0.01 0.01 0.02 0.01 0.01 0.01 0.00 0.00 0.00 0.02 0.04 0.07 0.11 0.12 0.09 0.06 0.03 0.03 0.03 0.04 0.05 0.08 0.11 0.09 0.08 0.09 0.10 0.10 0.11 0.13 0.16 0.17 0.14 0.10 0.07 0.06
0.08 0.12 0.17 0.10 0.04 0.01 0.00 0.00 0.00 0.00 0.00 0.00 0.00 0.01 0.02 0.02 0.02 0.02 0.01 0.01 0.00 0.00 0.01 0.04 0.06 0.10 0.11 0.08 0.06 0.04 0.04 0.03 0.03 0.04 0.07 0.11 0.12 0.11 0.09 0.08 0.07 0.07 0.07 0.08 0.07 0.05 0.02 0.01 0.01
0.16 0.25 0.21 0.12 0.04 0.01 0.00 0.00 0.00 0.00 0.00 0.00 0.00 0.01 0.02 0.02 0.02 0.02 0.02 0.01 0.01 0.00 0.01 0.05 0.07 0.09 0.09 0.07 0.06 0.05 0.04 0.03 0.02 0.03 0.05 0.10 0.14 0.13 0.08 0.04 0.03 0.03 0.03 0.04 0.03 0.01 0.01 0.00 0.00
0.30 0.35 0.24 0.12 0.04 0.01 0.00 0.00 0.00 0.00 0.00 0.00 0.00 0.02 0.04 0.02 0.02 0.03 0.03 0.03 0.01 0.01 0.02 0.06 0.08 0.09 0.08 0.07 0.07 0.05 0.04 0.03 0.02 0.02 0.03 0.07 0.12 0.12 0.08 0.03 0.02 0.02 0.02 0.02 0.02 0.01 0.01 0.00 0.00
0.46 0.42 0.27 0.11 0.03 0.01 0.00 0.00 0.00 0.00 0.00 0.00 0.01 0.03 0.08 0.06 0.04 0.03 0.03 0.04 0.02 0.01 0.03 0.07 0.11 0.10 0.08 0.08 0.07 0.05 0.03 0.02 0.02 0.02 0.04 0.05 0.07 0.09 0.07 0.03 0.02 0.02 0.02 0.02 0.01 0.01 0.01 0.01 0.01
0.48 0.43 0.26 0.08 0.03 0.02 0.00 0.00 0.00 0.00 0.00 0.00 0.00 0.05 0.12 0.11 0.10 0.06 0.05 0.06 0.05 0.02 0.03 0.07 0.11 0.11 0.10 0.08 0.07 0.05 0.03 0.02 0.02 0.03 0.03 0.03 0.03 0.05 0.05 0.03 0.02 0.02 0.02 0.02 0.02 0.02 0.02 0.02 0.01
0.46 0.50 0.30 0.11 0.03 0.02 0.01 0.01 0.00 0.00 0.00 0.00 0.00 0.04 0.11 0.11 0.13 0.12 0.09 0.08 0.07 0.06 0.05 0.06 0.09 0.10 0.10 0.09 0.07 0.05 0.03 0.02 0.02 0.02 0.02 0.01 0.01 0.02 0.02 0.02 0.02 0.02 0.02 0.02 0.02 0.02 0.02 0.02 0.02
0.48 0.54 0.32 0.12 0.04 0.02 0.02 0.02 0.01 0.00 0.00 0.01 0.01 0.03 0.05 0.08 0.16 0.18 0.15 0.13 0.12 0.10 0.08 0.07 0.07 0.08 0.09 0.07 0.05 0.04 0.03 0.02 0.02 0.01 0.01 0.00 0.01 0.01 0.01 0.01 0.01 0.01 0.01 0.01 0.01 0.02 0.02 0.01 0.01
0.49 0.43 0.23 0.08 0.04 0.04 0.04 0.04 0.02 0.01 0.01 0.03 0.06 0.07 0.09 0.13 0.23 0.25 0.19 0.15 0.12 0.11 0.10 0.08 0.06 0.07 0.07 0.06 0.05 0.04 0.03 0.02 0.01 0.01 0.01 0.01 0.01 0.01 0.01 0.00 0.00 0.01 0.01 0.01 0.01 0.01 0.01 0.00 0.00
0.29 0.23 0.13 0.09 0.08 0.08 0.08 0.06 0.05 0.04 0.02 0.03 0.05 0.08 0.14 0.22 0.29 0.30 0.27 0.22 0.16 0.11 0.10 0.08 0.07 0.07 0.06 0.05 0.04 0.03 0.03 0.02 0.01 0.01 0.01 0.01 0.01 0.00 0.00 0.00 0.00 0.00 0.00 0.01 0.00 0.00 0.00 0.00 0.00
0.16 0.12 0.12 0.14 0.13 0.12 0.10 0.08 0.07 0.05 0.03 0.03 0.05 0.10 0.13 0.18 0.22 0.26 0.28 0.27 0.24 0.18 0.13 0.11 0.09 0.07 0.06 0.04 0.03 0.02 0.02 0.02 0.01 0.00 0.00 0.00 0.00 0.00 0.00 0.00 0.00 0.00 0.00 0.01 0.00 0.00 0.00 0.00 0.00
0.14 0.10 0.13 0.16 0.17 0.13 0.11 0.09 0.07 0.05 0.05 0.07 0.11 0.15 0.17 0.20 0.24 0.30 0.34 0.34 0.33 0.27 0.22 0.18 0.15 0.11 0.07 0.05 0.03 0.02 0.02 0.01 0.01 0.01 0.00 0.00 0.00 0.00 0.00 0.00 0.00 0.00 0.00 0.00 0.00 0.00 0.00 0.00 0.00
0.12 0.11 0.14 0.18 0.20 0.15 0.14 0.13 0.09 0.06 0.06 0.10 0.16 0.19 0.18 0.22 0.24 0.25 0.30 0.32 0.31 0.32 0.30 0.24 0.21 0.18 0.13 0.08 0.04 0.02 0.02 0.02 0.01 0.01 0.01 0.01 0.00 0.00 0.00 0.00 0.00 0.00 0.00 0.00 0.00 0.00 0.00 0.00 0.00
0.17 0.21 0.20 0.18 0.21 0.18 0.17 0.21 0.12 0.06 0.05 0.10 0.13 0.16 0.17 0.19 0.21 0.19 0.19 0.22 0.25 0.30 0.35 0.31 0.29 0.27 0.18 0.13 0.09 0.05 0.04 0.03 0.03 0.03 0.02 0.01 0.01 0.00 0.00 0.00 0.00 0.00 0.00 0.00 0.00 0.00 0.00 0.00 0.00
0.35 0.39 0.31 0.16 0.18 0.19 0.21 0.22 0.10 0.06 0.05 0.07 0.10 0.13 0.13 0.14 0.16 0.17 0.19 0.21 0.23 0.28 0.31 0.36 0.34 0.30 0.26 0.20 0.15 0.11 0.10 0.09 0.08 0.08 0.05 0.04 0.02 0.02 0.02 0.01 0.00 0.00 0.00 0.00 0.00 0.00 0.00 0.00 0.00
0.54 0.38 0.26 0.15 0.12 0.17 0.17 0.13 0.10 0.07 0.06 0.05 0.06 0.10 0.12 0.12 0.13 0.12 0.15 0.20 0.23 0.27 0.28 0.33 0.32 0.29 0.31 0.34 0.33 0.28 0.23 0.17 0.16 0.13 0.09 0.09 0.07 0.06 0.04 0.02 0.02 0.01 0.01 0.01 0.01 0.00 0.01 0.00 0.00
0.35 0.19 0.15 0.14 0.09 0.12 0.12 0.08 0.07 0.07 0.07 0.04 0.04 0.07 0.09 0.10 0.08 0.08 0.08 0.12 0.18 0.27 0.33 0.34 0.38 0.39 0.44 0.51 0.51 0.45 0.38 0.29 0.25 0.20 0.18 0.16 0.13 0.11 0.09 0.06 0.04 0.02 0.02 0.02 0.02 0.01 0.01 0.01 0.01
0.27 0.18 0.12 0.09 0.10 0.10 0.07 0.05 0.06 0.06 0.05 0.04 0.03 0.04 0.06 0.07 0.08 0.07 0.08 0.11 0.14 0.20 0.26 0.31 0.34 0.40 0.43 0.41 0.39 0.36 0.34 0.36 0.36 0.33 0.32 0.28 0.22 0.18 0.14 0.10 0.08 0.06 0.04 0.03 0.04 0.04 0.03 0.03 0.02
0.39 0.31 0.18 0.11 0.09 0.11 0.08 0.05 0.04 0.04 0.04 0.04 0.02 0.02 0.03 0.04 0.05 0.07 0.08 0.09 0.11 0.13 0.17 0.24 0.28 0.35 0.38 0.35 0.40 0.43 0.50 0.54 0.54 0.50 0.42 0.37 0.34 0.30 0.23 0.16 0.14 0.13 0.10 0.07 0.07 0.08 0.07 0.06 0.06
0.45 0.34 0.25 0.16 0.10 0.12 0.12 0.08 0.03 0.02 0.02 0.03 0.02 0.02 0.02 0.02 0.02 0.04 0.06 0.07 0.08 0.09 0.11 0.15 0.21 0.27 0.32 0.39 0.49 0.56 0.60 0.52 0.47 0.42 0.40 0.40 0.41 0.41 0.37 0.31 0.26 0.23 0.20 0.15 0.16 0.17 0.16 0.16 0.17
0.49 0.26 0.26 0.25 0.26 0.21 0.13 0.12 0.03 0.01 0.01 0.01 0.01 0.01 0.01 0.01 0.01 0.02 0.03 0.04 0.05 0.07 0.10 0.13 0.17 0.22 0.27 0.35 0.36 0.39 0.39 0.35 0.34 0.40 0.46 0.48 0.47 0.46 0.44 0.41 0.37 0.34 0.30 0.27 0.29 0.32 0.33 0.33 0.29
0.46 0.28 0.29 0.34 0.38 0.33 0.17 0.12 0.03 0.01 0.00 0.00 0.00 0.00 0.01 0.01 0.01 0.01 0.02 0.03 0.04 0.06 0.09 0.11 0.14 0.19 0.25 0.29 0.32 0.35 0.33 0.34 0.37 0.40 0.41 0.42 0.42 0.42 0.43 0.43 0.44 0.43 0.41 0.42 0.45 0.45 0.45 0.43 0.40
0.53 0.52 0.55 0.56 0.68 0.61 0.18 0.11 0.03 0.00 0.00 0.00 0.00 0.00 0.00 0.00 0.01 0.01 0.02 0.02 0.03 0.04 0.06 0.08 0.11 0.13 0.17 0.23 0.28 0.29 0.32 0.35 0.36 0.36 0.36 0.37 0.40 0.40 0.39 0.41 0.44 0.47 0.47 0.48 0.50 0.53 0.56 0.57 0.55
0.80 1.08 1.39 1.26 1.00 0.45 0.10 0.09 0.03 0.00 0.00 0.00 0.00 0.00 0.00 0.00 0.00 0.01 0.01 0.01 0.01 0.02 0.04 0.06 0.08 0.09 0.12 0.17 0.21 0.23 0.28 0.33 0.32 0.33 0.34 0.34 0.32 0.29 0.31 0.37 0.41 0.46 0.50 0.53 0.55 0.55 0.56 0.61 0.65
0.77 0.91 1.06 0.82 0.43 0.15 0.07 0.06 0.01 0.00 0.00 0.00 0.00 0.00 0.00 0.00 0.00 0.00 0.00 0.00 0.01 0.01 0.02 0.04 0.05 0.07 0.11 0.13 0.14 0.16 0.19 0.24 0.25 0.27 0.27 0.29 0.29 0.32 0.35 0.38 0.40 0.42 0.44 0.46 0.48 0.50 0.52 0.58 0.63
0.71 0.68 0.58 0.68 0.42 0.20 0.08 0.03 0.01 0.00 0.00 0.00 0.00 0.00 0.00 0.00 0.00 0.00 0.00 0.00 0.00 0.01 0.01 0.02 0.03 0.06 0.08 0.10 0.13 0.13 0.13 0.15 0.18 0.21 0.23 0.24 0.26 0.28 0.31 0.33 0.34 0.34 0.36 0.37 0.40 0.42 0.43 0.47 0.50
0.62 0.55 0.69 0.96 0.72 0.35 0.10 0.02 0.00 0.00 0.00 0.00 0.00 0.00 0.00 0.00 0.00 0.00 0.00 0.00 0.00 0.01 0.01 0.02 0.03 0.05 0.07 0.09 0.10 0.10 0.10 0.12 0.15 0.16 0.15 0.16 0.19 0.21 0.23 0.25 0.25 0.26 0.26 0.27 0.28 0.29 0.29 0.31 0.34
0.57 0.68 0.79 0.79 0.55 0.44 0.24 0.07 0.02 0.01 0.01 0.01 0.00 0.00 0.00 0.00 0.00 0.00 0.00 0.00 0.01 0.01 0.02 0.02 0.03 0.04 0.05 0.07 0.08 0.09 0.09 0.10 0.11 0.12 0.12 0.13 0.15 0.16 0.16 0.17 0.19 0.19 0.18 0.18 0.18 0.18 0.19 0.21 0.24
0.45 0.42 0.56 0.81 0.60 0.39 0.30 0.14 0.05 0.03 0.02 0.02 0.02 0.02 0.01 0.01 0.00 0.00 0.00 0.00 0.01 0.02 0.02 0.03 0.03 0.05 0.06 0.07 0.08 0.09 0.11 0.12 0.12 0.12 0.12 0.12 0.12 0.11 0.11 0.11 0.12 0.12 0.12 0.12 0.12 0.12 0.13 0.15 0.17